Location: Beaver Brook Station
(42.3793°N, 71.2203°W)
Time: 05:07:52
(UTC+00:00)

X-37B - Pass Details

Date: 27 January 2021
Orbit: 383 x 391 km, 45.0° (Epoch: 27 February)

Event Time Altitude Azimuth Distance (km) Brightness Sun altitude
Rises 23:18:09 0° 286° (WNW) 2,274 5.7 -15.8°
Reaches altitude 10° 23:20:14 10° 289° (WNW) 1,419 4.4 -16.2°
Maximum altitude 23:23:25 69° 13° (NNE) 420 0.6 -16.8°
Enters shadow 23:24:01 52° 74° (ENE) 490 0.6 -16.9°
